GW0991 Weather Reports


Display with metric or nautical units.
time (UTC)temp
F
wind
direction
speed
MPH
gust
MPH
rain 1hr
in
rain 24hr
in
rain mn
in
humidity
%
barometer
mb
20260506160835 57 36 3.0 7.0 0.00 0.00 0.00 48 1016.7
20260506160332 56 237 1.0 7.0 0.00 0.00 0.00 51 1016.9
20260506155830 56 283 3.0 5.0 0.00 0.00 0.00 50 1016.6
20260506155326 56 190 1.0 1.0 0.00 0.00 0.00 52 1016.6
20260506153439 52 265 1.0 3.0 0.00 0.00 0.00 62 1016.6
20260506152937 52 47 2.0 5.0 0.00 0.00 0.00 63 1016.5
20260506152433 53 72 2.0 2.0 0.00 0.00 0.00 61 1016.5
20260506151932 52 36 1.0 3.0 0.00 0.00 0.00 63 1016.3
20260506151429 52 12 1.0 3.0 0.00 0.00 0.00 62 1016.4
20260506150926 52 12 2.0 2.0 0.00 0.00 0.00 62 1016.3
20260506150422 52 167 0.0 2.0 0.00 0.00 0.00 61 1016.3
20260506145919 51 70 2.0 3.0 0.00 0.00 0.00 61 1016.1
20260506145415 51 186 0.0 2.0 0.00 0.00 0.00 61 1016.2
20260506144913 51 246 1.0 3.0 0.00 0.00 0.00 64 1016.3
20260506144409 50 33 3.0 3.0 0.00 0.00 0.00 65 1016.1
20260506143908 50 53 1.0 3.0 0.00 0.00 0.00 65 1016.0
20260506143404 50 90 1.0 3.0 0.00 0.00 0.00 66 1015.9
20260506142903 50 52 2.0 3.0 0.00 0.00 0.00 62 1016.1
20260506142401 50 159 1.0 1.0 0.00 0.00 0.00 64 1016.1
20260506141858 50 130 1.0 2.0 0.00 0.00 0.00 65 1016.0
20260506141356 50 62 1.0 1.0 0.00 0.00 0.00 66 1016.0
20260506140854 49 122 0.0 1.0 0.00 0.00 0.00 68 1016.0
20260506140350 50 32 2.0 3.0 0.00 0.00 0.00 67 1016.1
20260506135848 49 219 0.0 2.0 0.00 0.00 0.00 70 1016.3
20260506135345 48 309 1.0 2.0 0.00 0.00 0.00 71 1016.2
20260506134841 48 237 0.0 2.0 0.00 0.00 0.00 73 1016.1
20260506134337 47 236 0.0 1.0 0.00 0.00 0.00 74 1016.1
20260506133834 47 222 0.0 0.0 0.00 0.00 0.00 74 1016.2
20260506133331 46 260 0.0 0.0 0.00 0.00 0.00 73 1016.0
20260506132828 46 40 0.0 1.0 0.00 0.00 0.00 73 1016.2
20260506132325 46 222 0.0 1.0 0.00 0.00 0.00 75 1016.4
20260506131823 46 225 0.0 1.0 0.00 0.00 0.00 75 1016.4
20260506131319 46 256 0.0 1.0 0.00 0.00 0.00 75 1016.2
20260506130816 46 300 0.0 3.0 0.00 0.00 0.00 75 1016.2
20260506130312 46 213 0.0 1.0 0.00 0.00 0.00 76 1016.2
20260506125811 46 234 1.0 1.0 0.00 0.00 0.00 75 1016.3
20260506125308 46 221 0.0 1.0 0.00 0.00 0.00 75 1016.0
20260506124807 45 230 1.0 2.0 0.00 0.00 0.00 75 1015.9
20260506124304 45 7 2.0 2.0 0.00 0.00 0.00 75 1015.7
20260506123801 45 149 0.0 2.0 0.00 0.00 0.00 75 1015.6
20260506123300 45 59 2.0 2.0 0.00 0.00 0.00 74 1015.5
20260506122756 46 259 1.0 2.0 0.00 0.00 0.00 75 1015.4
20260506122253 46 198 0.0 0.0 0.00 0.00 0.00 75 1015.1
20260506121751 46 201 0.0 0.0 0.00 0.00 0.00 75 1015.1
20260506121248 46 64 1.0 1.0 0.00 0.00 0.00 77 1015.0
20260506120745 44 20 1.0 5.0 0.00 0.00 0.00 77 1015.2
20260506120243 44 100 1.0 1.0 0.00 0.00 0.00 79 1015.1
20260506115740 43 227 0.0 1.0 0.00 0.00 0.00 80 1014.8
20260506115238 43 349 1.0 2.0 0.00 0.00 0.00 79 1014.8
20260506114736 43 355 2.0 2.0 0.00 0.00 0.00 79 1014.8
20260506114233 43 254 1.0 2.0 0.00 0.00 0.00 79 1014.5
20260506113732 43 224 0.0 1.0 0.00 0.00 0.00 79 1014.3
20260506113229 43 206 0.0 1.0 0.00 0.00 0.00 80 1014.1
20260506112725 43 220 0.0 0.0 0.00 0.00 0.00 80 1014.1
20260506112223 42 226 0.0 1.0 0.00 0.00 0.00 80 1013.8
20260506111720 42 241 0.0 2.0 0.00 0.00 0.00 81 1013.8
20260506111218 42 203 0.0 0.0 0.00 0.00 0.00 82 1013.9
20260506110714 42 210 0.0 0.0 0.00 0.00 0.00 81 1014.0
20260506110213 42 266 1.0 1.0 0.00 0.00 0.00 81 1013.9
20260506105709 42 208 0.0 1.0 0.00 0.00 0.00 80 1014.0
20260506105206 42 224 0.0 2.0 0.00 0.00 0.00 80 1013.6
20260506104704 42 272 1.0 2.0 0.00 0.00 0.00 81 1013.6
20260506104201 42 221 0.0 0.0 0.00 0.00 0.00 82 1013.5
20260506103658 42 206 0.0 0.0 0.00 0.00 0.00 84 1013.5
20260506103155 42 193 0.0 0.0 0.00 0.00 0.00 84 1013.3
20260506102653 42 202 0.0 1.0 0.00 0.00 0.00 84 1013.4
20260506102150 42 269 0.0 1.0 0.00 0.00 0.00 85 1013.6
20260506101647 42 230 0.0 2.0 0.00 0.00 0.00 87 1013.8
20260506101144 41 168 0.0 0.0 0.00 0.00 0.00 89 1013.5
20260506100642 41 196 0.0 0.0 0.00 0.00 0.00 91 1013.6
20260506100140 41 209 0.0 0.0 0.00 0.00 0.00 91 1013.7
20260506095638 41 201 0.0 0.0 0.00 0.00 0.00 92 1013.6
20260506095135 41 209 0.0 0.0 0.00 0.00 0.00 93 1013.6
20260506094632 41 225 0.0 1.0 0.00 0.00 0.00 94 1013.4
20260506094130 41 203 0.0 0.0 0.00 0.00 0.00 94 1013.5
20260506093628 41 206 0.0 0.0 0.00 0.00 0.00 94 1012.9
20260506093125 41 207 0.0 0.0 0.00 0.00 0.00 94 1012.9
20260506092623 41 214 0.0 0.0 0.00 0.00 0.00 94 1012.8
20260506092119 41 203 0.0 0.0 0.00 0.00 0.00 94 1012.4
20260506091618 41 199 0.0 0.0 0.00 0.00 0.00 93 1012.5
20260506091115 41 209 0.0 0.0 0.00 0.00 0.00 93 1012.4
20260506090613 41 206 0.0 0.0 0.00 0.00 0.00 92 1012.9
20260506090109 41 208 0.0 0.0 0.00 0.00 0.00 92 1013.2
20260506085606 42 207 0.0 0.0 0.00 0.00 0.00 92 1013.1
20260506085102 42 208 0.0 0.0 0.00 0.00 0.00 92 1013.2
20260506084559 42 208 0.0 0.0 0.00 0.00 0.00 92 1013.3
20260506084055 42 207 0.0 0.0 0.00 0.00 0.00 92 1013.4
20260506083553 42 207 0.0 0.0 0.00 0.00 0.00 93 1013.2
20260506083050 42 209 0.0 0.0 0.00 0.00 0.00 93 1013.2
20260506082546 42 210 0.0 0.0 0.00 0.00 0.00 93 1013.5
20260506082042 42 209 0.0 0.0 0.00 0.00 0.00 93 1013.3
20260506081541 42 209 0.0 0.0 0.00 0.00 0.00 93 1013.0
20260506081038 42 211 0.0 0.0 0.00 0.00 0.00 93 1012.8
20260506080535 42 209 0.0 0.0 0.00 0.00 0.00 93 1012.8
20260506073519 42 208 0.0 0.0 0.00 0.00 0.00 93 1012.8
20260506073016 42 207 0.0 0.0 0.00 0.00 0.00 94 1012.5
20260506072513 43 206 0.0 0.0 0.00 0.00 0.00 93 1012.6
20260506072010 43 211 0.0 0.0 0.00 0.00 0.00 93 1012.6
20260506071508 43 213 0.0 0.0 0.00 0.00 0.00 94 1012.4
20260506071005 44 205 0.0 0.0 0.00 0.00 0.00 94 1012.5
20260506070503 44 204 0.0 0.0 0.00 0.00 0.00 94 1012.8
20260506062440 45 221 0.0 0.0 0.00 0.00 0.00 93 1012.9
20260506061936 45 204 0.0 0.0 0.00 0.00 0.00 93 1012.3
20260506061432 44 203 0.0 0.0 0.00 0.00 0.00 93 1012.5
20260506060930 44 203 0.0 0.0 0.00 0.00 0.00 93 1012.4
20260506060428 44 203 0.0 0.0 0.00 0.00 0.00 92 1012.4
20260506051400 47 202 0.0 0.0 0.00 0.00 0.00 89 1012.9
20260506050857 47 202 0.0 0.0 0.00 0.00 0.00 88 1012.3
20260506050355 47 208 0.0 0.0 0.00 0.00 0.00 88 1012.6
20260506044845 48 204 0.0 0.0 0.00 0.05 0.05 87 1012.6
20260506044343 48 202 0.0 0.0 0.00 0.05 0.05 86 1012.2
20260506043840 48 202 0.0 0.0 0.00 0.05 0.05 86 1012.1
20260506043337 48 209 0.0 0.0 0.00 0.05 0.05 85 1012.3
20260506042835 48 191 0.0 0.0 0.00 0.05 0.05 84 1012.4
20260506042334 48 194 0.0 0.0 0.00 0.05 0.05 85 1012.1
20260506041833 48 206 0.0 0.0 0.00 0.05 0.05 85 1012.4
20260506041329 49 212 0.0 0.0 0.00 0.05 0.05 84 1012.1
20260506040826 49 217 0.0 0.0 0.00 0.05 0.05 83 1012.2
20260506040324 49 252 0.0 1.0 0.00 0.05 0.05 84 1012.3
20260506035820 49 207 0.0 0.0 0.00 0.05 0.05 82 1012.1
20260506035317 49 198 0.0 2.0 0.00 0.05 0.05 82 1012.5
20260506034814 49 154 1.0 2.0 0.00 0.05 0.05 82 1012.3
20260506034311 49 217 1.0 1.0 0.00 0.05 0.05 82 1012.9
20260506033808 49 222 0.0 0.0 0.00 0.05 0.05 83 1012.6
20260506033305 49 196 0.0 0.0 0.00 0.05 0.05 80 1012.5
20260506032802 49 171 0.0 0.0 0.00 0.05 0.05 80 1012.4
20260506032259 49 179 0.0 0.0 0.00 0.05 0.05 82 1012.5
20260506031755 49 200 0.0 0.0 0.00 0.05 0.05 82 1012.6
20260506031253 49 229 1.0 1.0 0.00 0.05 0.05 82 1013.0
20260506030751 49 174 1.0 1.0 0.00 0.05 0.05 81 1012.8
20260506030249 49 203 0.0 0.0 0.00 0.05 0.05 81 1012.9
20260506025745 49 208 0.0 0.0 0.00 0.05 0.05 80 1013.0
20260506025241 49 208 0.0 0.0 0.00 0.05 0.05 80 1012.8
20260506024739 49 208 0.0 0.0 0.00 0.05 0.05 80 1013.1
20260506024235 49 212 0.0 0.0 0.00 0.05 0.05 80 1012.6
20260506023731 48 206 0.0 0.0 0.00 0.05 0.05 82 1012.3
20260506023229 49 203 0.0 0.0 0.00 0.05 0.05 82 1012.4
20260506022725 49 205 0.0 0.0 0.00 0.05 0.05 81 1012.3
20260506022223 49 205 0.0 0.0 0.00 0.05 0.05 81 1012.1
20260506021721 49 195 0.0 0.0 0.00 0.05 0.05 81 1011.8
20260506021218 49 194 0.0 0.0 0.00 0.05 0.05 79 1011.8
20260506020714 49 194 0.0 0.0 0.00 0.05 0.05 78 1011.6
20260506020213 49 194 0.0 0.0 0.00 0.05 0.05 77 1011.5
20260506015710 49 210 0.0 0.0 0.00 0.05 0.05 76 1011.8
20260506015207 49 210 0.0 0.0 0.00 0.05 0.05 77 1011.8
20260506014704 49 210 0.0 0.0 0.00 0.05 0.05 77 1011.9
20260506014200 49 210 0.0 0.0 0.00 0.05 0.05 76 1011.8
20260506013658 49 211 0.0 0.0 0.00 0.05 0.05 77 1011.8
20260506013155 49 210 0.0 0.0 0.00 0.05 0.05 75 1011.6
20260506012651 49 214 0.0 0.0 0.00 0.05 0.05 78 1011.4
20260506012148 49 214 0.0 0.0 0.00 0.05 0.05 77 1011.3
20260506011645 49 214 0.0 0.0 0.00 0.05 0.05 76 1011.3
20260506011141 49 214 0.0 0.0 0.00 0.05 0.05 78 1011.1
20260506010640 49 214 0.0 0.0 0.00 0.05 0.05 75 1011.1
20260506010137 50 214 0.0 0.0 0.00 0.05 0.05 75 1011.1
20260506005634 50 214 0.0 0.0 0.00 0.05 0.05 74 1011.2
20260506005130 50 215 0.0 0.0 0.00 0.05 0.05 74 1011.0
20260506004627 50 214 0.0 0.0 0.00 0.05 0.05 75 1011.0
20260506004124 50 215 0.0 0.0 0.00 0.05 0.05 73 1010.8
20260506003620 50 215 0.0 0.0 0.00 0.05 0.05 71 1010.7
20260506003116 50 226 0.0 1.0 0.00 0.05 0.05 70 1010.8
20260506002612 51 228 0.0 1.0 0.00 0.05 0.05 70 1010.6
20260506002109 51 288 1.0 2.0 0.00 0.05 0.05 68 1010.8
20260506001605 51 232 0.0 2.0 0.00 0.05 0.05 67 1010.6
20260506001102 51 174 0.0 0.0 0.00 0.05 0.05 67 1010.5
20260506000600 51 258 0.0 1.0 0.00 0.05 0.05 68 1010.8
20260506000057 51 47 0.0 1.0 0.00 0.05 0.05 67 1010.6
20260505235555 51 236 0.0 0.0 0.00 0.05 0.05 69 1010.7
20260505235052 51 265 1.0 2.0 0.00 0.05 0.05 68 1010.9
20260505234548 51 346 0.0 2.0 0.00 0.05 0.05 69 1010.9
20260505234045 51 302 0.0 2.0 0.00 0.05 0.05 69 1011.1
20260505233543 51 311 2.0 2.0 0.00 0.05 0.05 72 1011.1
20260505233040 51 274 1.0 1.0 0.00 0.05 0.05 79 1011.1
20260505232538 51 176 0.0 0.0 0.00 0.05 0.05 78 1011.1
20260505232035 51 214 0.0 2.0 0.00 0.05 0.05 79 1011.1
20260505231531 51 222 1.0 1.0 0.00 0.05 0.05 78 1011.1
20260505231030 51 212 0.0 1.0 0.00 0.05 0.05 78 1010.9
20260505230527 51 214 0.0 2.0 0.00 0.05 0.05 77 1011.0
20260505230024 51 225 1.0 1.0 0.00 0.05 0.05 78 1010.8
20260505225521 51 260 0.0 1.0 0.00 0.05 0.05 78 1010.9
20260505225017 51 208 0.0 0.0 0.00 0.05 0.05 78 1011.1
20260505224514 51 203 0.0 1.0 0.00 0.05 0.05 78 1010.9
20260505224011 51 210 0.0 1.0 0.00 0.05 0.05 78 1010.8
20260505223508 51 248 1.0 1.0 0.00 0.05 0.05 78 1010.7
20260505223004 51 206 0.0 0.0 0.00 0.05 0.05 79 1010.9
20260505222501 51 204 0.0 0.0 0.00 0.05 0.05 79 1010.9
20260505221956 50 219 0.0 1.0 0.00 0.05 0.05 78 1010.8
20260505221454 50 255 1.0 2.0 0.00 0.05 0.05 78 1010.9
20260505220951 50 232 0.0 1.0 0.00 0.05 0.05 79 1010.7
20260505220448 50 131 1.0 1.0 0.00 0.05 0.05 79 1010.8
20260505215945 50 264 1.0 2.0 0.00 0.05 0.05 79 1010.9
20260505215444 50 234 0.0 1.0 0.00 0.05 0.05 79 1011.0
20260505214941 50 245 0.0 2.0 0.00 0.05 0.05 77 1010.9
20260505214439 51 93 0.0 2.0 0.00 0.05 0.05 74 1010.9
20260505213936 51 186 0.0 1.0 0.00 0.05 0.05 74 1011.0
20260505213433 51 259 1.0 1.0 0.00 0.05 0.05 74 1011.0
20260505212929 51 263 1.0 2.0 0.00 0.05 0.05 74 1011.2
20260505212426 51 145 1.0 1.0 0.00 0.05 0.05 74 1011.2
20260505211922 51 45 1.0 2.0 0.00 0.05 0.05 73 1011.1
20260505211420 51 245 0.0 2.0 0.00 0.05 0.05 76 1011.4
20260505210916 51 249 1.0 2.0 0.00 0.05 0.05 74 1011.4
20260505210414 51 87 1.0 2.0 0.00 0.05 0.05 75 1011.3
20260505205910 51 178 0.0 0.0 0.00 0.05 0.05 76 1011.5
20260505205409 51 183 0.0 0.0 0.00 0.05 0.05 76 1011.7
20260505204905 51 206 0.0 0.0 0.00 0.05 0.05 79 1011.8
20260505204403 50 207 0.0 0.0 0.00 0.05 0.05 80 1011.9
20260505203900 50 220 1.0 1.0 0.00 0.05 0.05 80 1012.0
20260505203356 50 253 1.0 2.0 0.00 0.05 0.05 79 1012.1
20260505202853 50 213 0.0 0.0 0.00 0.05 0.05 80 1012.0
20260505202349 50 358 2.0 2.0 0.00 0.05 0.05 78 1012.2
20260505201846 50 78 1.0 1.0 0.00 0.05 0.05 78 1012.2
20260505201343 50 183 0.0 2.0 0.00 0.05 0.05 76 1012.3
20260505200842 50 313 1.0 2.0 0.00 0.05 0.05 77 1012.3
20260505200338 50 238 0.0 3.0 0.07 0.05 0.05 79 1012.3
20260505195834 50 285 1.0 2.0 0.07 0.05 0.05 79 1012.4
20260505195331 50 288 3.0 3.0 0.00 0.04 0.04 79 1012.6
20260505194828 50 256 1.0 2.0 0.00 0.04 0.04 82 1012.5
20260505194325 50 241 1.0 1.0 0.05 0.04 0.04 83 1012.3
20260505193820 50 209 0.0 1.0 0.05 0.04 0.04 83 1012.5
20260505193319 50 254 1.0 3.0 0.07 0.03 0.03 81 1012.5
20260505192816 50 240 1.0 2.0 0.07 0.03 0.03 81 1012.4
20260505192315 50 101 1.0 2.0 0.05 0.02 0.02 78 1012.8
20260505191812 50 235 0.0 2.0 0.05 0.02 0.02 77 1012.4
20260505191310 51 92 2.0 5.0 0.00 0.01 0.01 72 1012.4
20260505190806 51 341 3.0 3.0 0.00 0.01 0.01 68 1012.3
20260505190302 51 19 3.0 7.0 0.00 0.01 0.01 66 1012.3
20260505185758 52 288 3.0 8.0 0.00 0.01 0.01 67 1012.5
20260505185254 53 316 4.0 6.0 0.00 0.01 0.01 68 1012.3
20260505184750 53 276 2.0 3.0 0.00 0.01 0.01 71 1012.0
20260505184248 53 100 0.0 3.0 0.00 0.01 0.01 73 1012.0
20260505183744 53 13 4.0 9.0 0.00 0.01 0.01 72 1011.9
20260505183242 53 309 5.0 8.0 0.00 0.01 0.01 72 1012.1
20260505182738 53 336 1.0 8.0 0.00 0.01 0.01 74 1012.0
20260505182235 53 270 6.0 8.0 0.00 0.01 0.01 75 1012.1
20260505181731 53 11 1.0 6.0 0.00 0.01 0.01 75 1012.0
20260505181229 53 339 3.0 7.0 0.00 0.01 0.01 74 1012.1
20260505180726 53 306 2.0 5.0 0.00 0.01 0.01 75 1011.9
20260505180222 53 309 4.0 9.0 0.00 0.01 0.01 74 1011.9
20260505175718 54 45 3.0 5.0 0.00 0.01 0.01 73 1012.3
20260505175215 54 66 1.0 5.0 0.00 0.01 0.01 74 1011.9
20260505174712 55 307 6.0 9.0 0.00 0.01 0.01 71 1012.0
20260505174209 54 291 3.0 6.0 0.00 0.01 0.01 72 1011.9
20260505173704 54 91 2.0 9.0 0.00 0.01 0.01 72 1011.9
20260505173202 54 244 3.0 5.0 0.00 0.01 0.01 71 1011.9
20260505172659 54 31 2.0 3.0 0.00 0.01 0.01 72 1012.3
20260505172155 53 67 2.0 3.0 0.00 0.01 0.01 73 1012.1
20260505171655 51 33 2.0 7.0 0.00 0.01 0.01 73 1012.0
20260505171152 51 29 4.0 6.0 0.00 0.01 0.01 75 1012.1
20260505170650 50 197 0.0 2.0 0.00 0.01 0.01 76 1012.0
20260505170146 50 69 2.0 5.0 0.00 0.01 0.01 76 1011.9
20260505165641 50 121 2.0 2.0 0.00 0.01 0.01 75 1011.9
20260505165137 50 301 2.0 5.0 0.00 0.01 0.01 76 1011.6
20260505164632 50 93 1.0 1.0 0.00 0.01 0.01 76 1011.7
20260505164130 50 269 1.0 7.0 0.00 0.01 0.01 76 1012.4
20260505163628 50 75 1.0 2.0 0.00 0.01 0.01 78 1012.4
20260505163126 51 7 3.0 8.0 0.00 0.01 0.01 76 1012.1
20260505162623 50 5 4.0 7.0 0.00 0.01 0.01 76 1012.0
20260505162121 51 150 3.0 3.0 0.00 0.01 0.01 75 1011.8
20260505161618 51 22 2.0 8.0 0.00 0.01 0.01 76 1011.7
20260505161115 50 81 2.0 3.0 0.00 0.01 0.01 79 1011.7